Powrót do katalogu

CZ-6A DEB

AktywnySSO
NORAD 54637·DEBRIS·🇨🇳 China

Wystrzelony Nov 11, 2022 z Taiyuan Satellite Launch Center

Loading…

Następne Przeloty (najbliższe 24 godziny)

TLE

ŚwieżeSource: Space-Track

Epoka: Sep 14, 2026, 00:00 UTC

1 54637U 22151PP  26257.00040787  .00002746  00000-0  12900-2 0  9997
2 54637  98.8408 262.8103 0062866  86.7592 274.0774 14.19830189196631

Śledź CZ-6A DEB w czasie rzeczywistym z AllMySat

Download on the App Store